Rice Lake, WI

10:45 AM CDT on May 24, 2017 (GMT -0500)
Rice Lake Regional-Carl's

Weather History for KRPD - April, 2013

Change the Weather History Date:

Friday, April 12, 2013

  Actual Average Record
Temperature  
Mean Temperature 30 °F -  
Max Temperature 33 °F 51 °F 75 °F (1998)
Min Temperature 28 °F 32 °F 19 °F (2016)
Degree Days  
Heating Degree Days 34    
Moisture  
Dew Point 27 °F    
Average Humidity 85    
Maximum Humidity 93    
Minimum Humidity 69    
Precipitation  
Precipitation 0.03 in - - ()
Sea Level Pressure  
Sea Level Pressure 29.71 in    
Wind  
Wind Speed 8 mph (North)    
Max Wind Speed 12 mph    
Max Gust Speed -    
Visibility 6 miles    
Events Rain , Snow    
Averages and records for this station are not official NWS values.
T = Trace of Precipitation, MM = Missing Value Source: NWS Daily Summary

Daily Weather History Graph

Daily Weather History Graph

Search for Another Location

Airport or City:

Trip Planner

Search our weather history database for the weather conditions in past years. The results will help you decide how hot, cold, wet, or windy it might be!

Date:

Astronomy

Apr. 12, 2013 Rise Set
Actual Time 6:26 AM CDT 7:49 PM CDT
Civil Twilight 5:55 AM CDT 8:20 PM CDT
Nautical Twilight 5:18 AM CDT 8:57 PM CDT
Astronomical Twilight 4:39 AM CDT 9:37 PM CDT
Moon 7:30 AM CDT (4/12) 10:28 PM CDT (4/12)
Length of Visible Light 14h 24m
Length of Day
13h 23m
Waxing Crescent, 5% of the Moon is Illuminated
Apr 12
Waxing Crescent
Apr 18
First Quarter
Apr 25
Full
May 2
Last Quarter
May 9
New

Hourly Weather History & Observations

Time (CDT) Temp. Windchill Dew Point Humidity Pressure Visibility Wind Dir Wind Speed Gust Speed Precip Events Conditions
12:15 AM 30.2 °F 22.6 °F 28.4 °F 93% 29.72 in 7.0 mi NNE 8.1 mph - N/A   Overcast
12:35 AM 30.2 °F 21.3 °F 28.4 °F 93% 29.71 in 7.0 mi NNE 10.4 mph - N/A   Overcast
12:55 AM 30.2 °F 21.9 °F 28.4 °F 93% 29.71 in 2.5 mi NNE 9.2 mph - N/A Snow Light Snow
1:15 AM 30.2 °F 21.9 °F 28.4 °F 93% 29.71 in 3.0 mi NNE 9.2 mph - N/A Snow Light Snow
1:55 AM 30.2 °F 22.6 °F 26.6 °F 86% 29.69 in 5.0 mi NNE 8.1 mph - N/A Snow Light Snow
2:15 AM 30.2 °F 22.6 °F 26.6 °F 86% 29.69 in 3.0 mi NNE 8.1 mph - N/A Snow Light Snow
2:35 AM 28.4 °F 20.4 °F 26.6 °F 93% 29.68 in 3.0 mi NNE 8.1 mph - N/A Snow Light Snow
2:55 AM 28.4 °F 19.7 °F 26.6 °F 93% 29.68 in 5.0 mi NNE 9.2 mph - N/A Snow Light Snow
3:35 AM 28.4 °F 19.1 °F 26.6 °F 93% 29.67 in 7.0 mi NNE 10.4 mph - N/A Snow Light Snow
4:15 AM 28.4 °F 20.4 °F 26.6 °F 93% 29.67 in 2.5 mi NNE 8.1 mph - N/A Snow Light Snow
4:35 AM 28.4 °F 19.7 °F 26.6 °F 93% 29.67 in 1.8 mi NNE 9.2 mph - N/A Snow Light Snow
4:55 AM 28.4 °F 19.7 °F 26.6 °F 93% 29.67 in 1.8 mi North 9.2 mph - 0.01 in Snow Light Snow
5:15 AM 28.4 °F 19.7 °F 26.6 °F 93% 29.67 in 1.8 mi North 9.2 mph - N/A Snow Light Snow
5:35 AM 28.4 °F 19.7 °F 26.6 °F 93% 29.67 in 2.5 mi North 9.2 mph - N/A Snow Light Snow
5:55 AM 28.4 °F 19.7 °F 26.6 °F 93% 29.66 in 1.2 mi North 9.2 mph - 0.01 in Snow Light Snow
6:15 AM 28.4 °F 19.1 °F 26.6 °F 93% 29.66 in 1.5 mi North 10.4 mph - N/A Snow Light Snow
6:35 AM 28.4 °F 19.7 °F 26.6 °F 93% 29.66 in 2.0 mi NNE 9.2 mph - N/A Snow Light Snow
6:55 AM 28.4 °F 19.7 °F 26.6 °F 93% 29.66 in 1.8 mi North 9.2 mph - 0.01 in Snow Light Snow
7:15 AM 28.4 °F 20.4 °F 26.6 °F 93% 29.66 in 2.0 mi NNE 8.1 mph - N/A Snow Light Snow
7:35 AM 28.4 °F 19.7 °F 26.6 °F 93% 29.66 in 4.0 mi NNE 9.2 mph - N/A Snow Light Snow
7:55 AM 28.4 °F 19.7 °F 26.6 °F 93% 29.66 in 5.0 mi NNE 9.2 mph - N/A Snow Light Snow
8:15 AM 30.2 °F 22.6 °F 26.6 °F 86% 29.67 in 2.0 mi NNE 8.1 mph - N/A Snow Light Snow
8:35 AM 30.2 °F 23.4 °F 28.4 °F 93% 29.66 in 1.8 mi NNE 6.9 mph - N/A Snow Light Snow
8:55 AM 30.2 °F 22.6 °F 28.4 °F 93% 29.67 in 4.0 mi NNE 8.1 mph - N/A Snow Light Snow
9:15 AM 30.2 °F 23.4 °F 26.6 °F 86% 29.67 in 2.0 mi NNE 6.9 mph - N/A Snow Light Snow
9:35 AM 32.0 °F 23.6 °F 26.6 °F 80% 29.66 in 3.0 mi NNE 10.4 mph - N/A Snow Light Snow
9:55 AM 32.0 °F 23.6 °F 26.6 °F 80% 29.67 in 4.0 mi NNE 10.4 mph - N/A   Haze
10:15 AM 32.0 °F 26.4 °F 26.6 °F 80% 29.67 in 3.0 mi NE 5.8 mph - N/A   Haze
10:35 AM 32.0 °F 24.2 °F 26.6 °F 80% 29.68 in 3.0 mi NNE 9.2 mph - N/A Snow Light Snow
10:55 AM 32.0 °F 25.6 °F 26.6 °F 80% 29.68 in 10.0 mi NNE 6.9 mph - N/A   Overcast
11:15 AM 32.0 °F 25.6 °F 26.6 °F 80% 29.68 in 7.0 mi NNE 6.9 mph - N/A   Overcast
11:35 AM 32.0 °F 24.8 °F 23.0 °F 69% 29.69 in 10.0 mi NE 8.1 mph - N/A   Overcast
11:55 AM 32.0 °F 27.5 °F 24.8 °F 75% 29.69 in 10.0 mi NE 4.6 mph - N/A   Overcast
12:15 PM 32.0 °F 28.7 °F 26.6 °F 80% 29.69 in 7.0 mi NE 3.5 mph - N/A Rain Light Rain
12:35 PM 32.0 °F 24.8 °F 26.6 °F 80% 29.69 in 5.0 mi North 8.1 mph - N/A Snow Light Snow
12:55 PM 32.0 °F 27.5 °F 26.6 °F 80% 29.69 in 2.5 mi NE 4.6 mph - N/A Snow Light Snow
1:15 PM 32.0 °F 28.7 °F 26.6 °F 80% 29.69 in 5.0 mi North 3.5 mph - N/A Snow Light Snow
1:35 PM 33.8 °F 30.8 °F 26.6 °F 75% 29.69 in 4.0 mi NNW 3.5 mph - N/A Snow Light Snow
1:55 PM 33.8 °F 29.6 °F 26.6 °F 75% 29.69 in 10.0 mi WNW 4.6 mph - N/A   Mostly Cloudy
2:15 PM 33.8 °F 28.6 °F 28.4 °F 81% 29.70 in 7.0 mi NNW 5.8 mph - N/A   Mostly Cloudy
2:35 PM 32.0 °F 26.4 °F 28.4 °F 87% 29.71 in 3.0 mi NW 5.8 mph - N/A Snow Light Snow
2:55 PM 33.8 °F 30.8 °F 28.4 °F 81% 29.71 in 7.0 mi WNW 3.5 mph - N/A Snow Light Snow
3:15 PM 33.8 °F 29.6 °F 26.6 °F 75% 29.70 in 10.0 mi NW 4.6 mph - N/A   Mostly Cloudy
3:35 PM 33.8 °F 25.8 °F 28.4 °F 81% 29.71 in 10.0 mi NNW 10.4 mph - N/A Snow Light Snow
3:55 PM 33.8 °F 27.7 °F 28.4 °F 81% 29.71 in 7.0 mi North 6.9 mph - N/A Snow Light Snow
4:15 PM 33.8 °F 27.7 °F 28.4 °F 81% 29.71 in 5.0 mi NW 6.9 mph - N/A Snow Light Snow
4:35 PM 32.0 °F 26.4 °F 30.2 °F 93% 29.72 in 2.0 mi NW 5.8 mph - N/A Snow Light Snow
4:55 PM 32.0 °F 28.7 °F 30.2 °F 93% 29.72 in 5.0 mi NW 3.5 mph - N/A Snow Light Snow
5:15 PM 33.8 °F 29.6 °F 30.2 °F 87% 29.72 in 4.0 mi NW 4.6 mph - N/A Snow Light Snow
5:35 PM 32.0 °F 25.6 °F 28.4 °F 87% 29.74 in 1.8 mi NW 6.9 mph - N/A Snow Light Snow
5:55 PM 32.0 °F 27.5 °F 28.4 °F 87% 29.74 in 5.0 mi WNW 4.6 mph - N/A Snow Light Snow
6:15 PM 32.0 °F 26.4 °F 28.4 °F 87% 29.75 in 3.0 mi WNW 5.8 mph - N/A Snow Light Snow
6:35 PM 32.0 °F 27.5 °F 28.4 °F 87% 29.75 in 7.0 mi NW 4.6 mph - N/A Snow Light Snow
6:55 PM 32.0 °F 26.4 °F 28.4 °F 87% 29.75 in 5.0 mi NW 5.8 mph - N/A Snow Light Snow
7:15 PM 32.0 °F 25.6 °F 26.6 °F 80% 29.76 in 10.0 mi NNW 6.9 mph - N/A   Overcast
7:35 PM 32.0 °F 26.4 °F 26.6 °F 80% 29.76 in 10.0 mi NNW 5.8 mph - N/A   Overcast
7:55 PM 32.0 °F 24.2 °F 26.6 °F 80% 29.76 in 10.0 mi NNW 9.2 mph - N/A   Mostly Cloudy
8:15 PM 32.0 °F 26.4 °F 26.6 °F 80% 29.76 in 10.0 mi NNW 5.8 mph - N/A   Overcast
8:35 PM 32.0 °F 24.8 °F 26.6 °F 80% 29.77 in 10.0 mi NNW 8.1 mph - N/A   Overcast
8:55 PM 32.0 °F 24.8 °F 26.6 °F 80% 29.78 in 10.0 mi NNW 8.1 mph - N/A Snow Light Snow
9:15 PM 32.0 °F 24.8 °F 26.6 °F 80% 29.78 in 10.0 mi NNW 8.1 mph - N/A   Overcast
9:35 PM 30.2 °F 20.8 °F 26.6 °F 86% 29.79 in 10.0 mi North 11.5 mph - N/A   Overcast
9:55 PM 30.2 °F 22.6 °F 26.6 °F 86% 29.79 in 10.0 mi NNW 8.1 mph - N/A Snow Light Snow
10:15 PM 30.2 °F 22.6 °F 24.8 °F 80% 29.80 in 10.0 mi North 8.1 mph - N/A   Overcast
10:35 PM 30.2 °F 24.3 °F 24.8 °F 80% 29.81 in 10.0 mi North 5.8 mph - N/A   Overcast
10:55 PM 30.2 °F 22.6 °F 23.0 °F 75% 29.80 in 10.0 mi North 8.1 mph - N/A   Overcast
11:15 PM 30.2 °F 23.4 °F 23.0 °F 75% 29.80 in 10.0 mi North 6.9 mph - N/A   Overcast
11:35 PM 30.2 °F 23.4 °F 23.0 °F 75% 29.80 in 10.0 mi North 6.9 mph - N/A   Overcast
11:55 PM 28.4 °F 22.2 °F 23.0 °F 80% 29.81 in 10.0 mi NNW 5.8 mph - N/A   Mostly Cloudy